Theta_e
306 306 306 306 306 309 310 310 310 310 311 311 311 311 312 312 313 315 317 317 320 320 319 316 318 319 318 315 316 316 317 318 321 325 333 337 337 333 330 334 339 340 346 343 350
306 306 306 307 309 310 310 310 311 311 311 311 311 311 312 312 314 319 318 321 319 317 316 316 317 317 314 315 316 317 317 320 321 322 335 336 335 335 334 341 343 346 346 349 348
307 307 308 309 310 310 311 311 311 311 311 311 311 312 312 312 321 322 323 320 321 316 316 317 318 319 318 316 316 317 318 320 321 321 330 336 335 331 341 345 343 348 341 348 347
308 309 309 310 310 310 310 311 311 311 311 311 311 312 312 316 319 319 319 319 316 316 316 318 318 320 316 317 316 318 317 317 320 320 334 335 332 326 330 342 340 339 337 334 342
308 309 309 310 310 310 310 310 311 311 311 311 312 312 314 317 318 321 318 317 316 316 317 318 320 320 319 317 317 317 318 319 319 319 319 323 322 321 326 339 335 331 330 326 327
308 308 308 309 309 310 310 311 311 311 311 312 312 312 318 319 322 321 318 318 318 319 319 318 319 318 317 317 318 318 318 320 318 321 320 321 321 322 326 334 333 330 327 329 329
308 308 309 309 310 310 311 312 313 313 313 313 313 313 317 316 322 319 319 319 319 320 319 318 318 317 316 317 317 318 319 317 320 320 321 317 321 320 320 331 331 330 329 330 330
310 310 310 310 311 313 314 315 316 316 315 314 314 314 314 321 322 321 319 319 319 319 318 319 319 317 318 316 316 318 316 315 317 319 320 319 318 321 320 322 325 325 331 330 331
311 310 310 311 313 315 316 317 317 317 316 315 314 316 317 323 319 319 319 319 319 319 319 319 319 316 315 315 314 313 317 317 316 316 319 317 317 321 319 318 319 321 331 331 331
313 312 312 314 315 315 317 319 320 318 318 317 317 318 319 321 319 319 320 320 318 317 317 318 312 313 310 312 316 317 317 317 315 317 316 316 316 320 319 317 316 316 330 331 333
315 313 314 315 316 315 317 319 320 319 318 316 319 319 320 321 320 320 320 319 317 318 317 316 315 315 314 313 316 317 317 317 318 320 317 317 318 320 320 321 319 317 329 332 333
318 315 314 315 316 316 316 318 322 319 318 318 318 319 321 322 320 320 321 318 318 318 319 318 317 318 316 317 317 317 316 317 319 320 321 322 322 322 322 322 319 319 327 331 332
313 316 314 314 315 317 319 321 325 325 320 323 322 322 322 320 320 321 318 319 319 319 319 319 320 320 320 319 320 318 321 322 323 321 320 321 320 326 326 327 326 325 326 331 334
310 315 314 313 315 317 318 324 324 325 324 329 326 323 321 320 321 321 322 321 321 322 321 320 321 322 320 322 321 322 321 321 321 319 319 320 320 326 326 327 327 328 330 332 332
309 312 315 313 314 317 324 323 323 326 339 331 321 322 320 320 322 322 322 322 322 322 322 322 322 323 322 323 322 322 322 321 321 320 318 324 326 325 327 327 327 328 331 332 332
309 310 316 317 318 324 324 323 324 330 336 325 321 321 321 320 321 321 321 321 321 322 323 325 323 322 323 323 322 321 320 322 321 317 323 326 327 326 328 330 332 333 333 333 332
309 310 315 318 321 324 325 322 324 330 330 326 321 320 319 320 322 321 322 322 322 324 324 325 325 323 323 323 321 319 322 324 327 325 328 325 330 328 326 326 330 334 332 332 330
309 311 318 319 322 324 324 321 328 329 329 325 322 322 322 324 322 324 323 323 326 324 324 326 326 325 324 325 322 323 321 323 331 329 327 326 329 327 324 323 329 329 328 329 328
309 313 316 324 327 328 319 326 327 331 327 326 323 324 326 327 326 326 326 328 326 324 326 325 326 325 324 323 322 322 321 320 323 323 323 327 328 327 323 321 321 320 317 316 316
311 320 324 326 326 324 320 325 328 327 325 324 326 328 328 328 328 326 329 328 328 324 322 325 324 325 327 325 324 324 322 326 323 329 331 330 331 330 322 320 318 318 315 314 313
318 317 324 324 324 316 320 323 325 325 323 324 325 326 325 328 327 327 330 328 326 325 325 325 326 328 327 327 327 325 325 326 325 328 328 329 327 324 321 321 317 315 312 312 311
312 313 322 317 317 317 318 322 325 327 323 324 324 325 327 327 327 327 330 328 324 324 328 325 325 328 328 325 326 326 328 324 327 327 326 325 323 318 318 316 314 315 313 311 310
308 312 320 320 316 316 320 326 324 324 324 324 326 324 324 326 325 326 327 326 324 327 323 321 321 322 321 318 323 325 325 327 325 320 323 325 323 323 321 318 316 315 314 312 310
311 320 316 314 314 321 321 320 320 322 323 322 322 322 322 322 324 327 327 327 326 321 325 323 322 321 321 322 324 326 326 326 327 324 326 324 326 324 321 317 317 315 312 310 309
313 318 316 317 317 316 318 318 318 320 320 321 322 324 325 326 326 326 327 327 325 324 321 322 325 327 327 328 328 326 326 325 326 324 326 324 327 323 316 317 315 314 313 311 310
317 318 316 315 314 315 317 318 318 320 323 322 322 324 324 326 326 326 326 325 327 325 325 323 326 328 328 328 326 326 324 324 324 324 322 320 320 316 316 315 314 313 312 311 310
316 318 315 316 316 316 316 318 321 321 320 320 320 321 325 326 324 322 320 319 321 321 321 321 323 324 326 326 325 322 324 323 322 321 320 320 317 317 317 316 314 313 312 310 308
Wind_Speed
2 2 2 1 1 1 2 4 4 5 6 8 11 14 17 19 20 11 6 6 5 7 12 14 10 9 6 4 4 4 3 4 6 2 7 3 5 5 8 4 1 6 7 19 35
2 1 1 1 0 1 3 4 5 6 7 9 12 15 18 22 19 10 8 8 9 10 9 6 6 10 2 4 2 4 4 8 7 4 5 5 7 8 5 9 3 11 15 31 36
2 2 1 1 1 2 4 5 6 7 8 11 13 16 20 19 4 6 7 15 11 9 8 8 7 1 2 1 3 1 5 6 2 5 10 8 2 4 8 8 18 21 23 29 31
2 1 1 1 3 4 5 6 7 8 9 12 14 17 21 2 0 5 4 7 8 7 7 5 5 4 5 6 3 3 13 8 5 4 7 9 4 9 10 8 15 17 20 24 20
2 2 2 3 4 6 7 8 8 9 10 12 13 17 7 4 8 9 7 7 8 8 6 2 4 1 3 3 5 6 18 13 7 7 8 9 4 5 7 14 11 9 10 14 18
3 3 4 5 6 7 8 9 10 10 11 12 12 14 3 3 5 7 5 8 11 8 3 5 6 9 3 4 2 3 9 4 7 3 4 12 5 4 3 13 14 13 16 18 22
4 4 5 6 7 8 10 11 11 12 12 12 12 9 2 12 2 9 9 8 12 18 3 8 4 6 3 7 3 6 4 4 2 2 4 10 3 9 8 14 14 10 16 19 21
4 4 5 7 8 10 12 13 13 13 13 11 9 3 6 10 13 12 17 17 16 20 20 14 6 2 0 4 8 6 5 6 6 1 3 7 6 5 7 10 10 11 16 18 18
5 4 6 7 9 11 12 12 10 9 9 8 3 1 9 12 5 12 10 10 9 9 17 13 2 1 6 3 6 8 4 5 11 7 6 4 5 7 9 11 11 11 20 18 15
9 6 7 9 11 12 14 14 8 6 2 1 3 3 7 4 7 5 7 6 4 5 7 4 5 3 5 5 4 7 4 6 7 10 8 7 7 7 10 10 12 9 16 15 19
14 9 9 11 13 14 17 7 5 3 2 7 6 5 6 6 4 5 7 4 3 4 3 5 3 6 11 7 6 3 5 6 5 5 4 2 6 8 4 2 6 7 15 14 14
19 12 10 11 14 15 15 2 6 1 7 11 15 7 21 17 3 5 7 4 3 6 2 4 7 14 7 10 6 3 2 6 4 9 5 3 2 2 7 6 6 6 8 13 14
25 17 12 11 13 12 10 13 13 17 1 8 6 5 6 6 3 4 6 3 4 4 4 5 6 2 4 5 7 4 5 4 2 6 6 7 6 12 6 13 15 10 14 17 18
28 20 14 11 6 11 9 21 7 3 4 6 3 5 4 3 3 4 4 2 5 3 6 2 6 5 7 5 3 4 1 5 5 5 1 5 3 5 7 12 10 14 6 13 13
29 23 14 10 10 5 18 19 9 4 3 3 4 4 5 6 3 3 3 2 2 4 5 6 5 2 4 1 3 5 2 4 2 2 3 6 5 5 5 8 8 9 11 9 11
28 22 14 6 11 9 23 19 5 5 3 3 6 6 4 3 3 5 2 1 1 3 3 5 6 3 2 2 5 4 4 7 5 2 3 4 4 4 3 3 5 11 16 13 12
28 21 11 9 4 15 22 5 5 3 7 2 5 5 6 5 4 6 5 2 2 3 4 5 6 5 7 6 7 10 7 4 5 5 4 3 4 5 2 5 5 13 12 12 9
28 19 8 11 11 17 10 5 3 4 5 3 5 3 4 2 2 1 4 1 7 4 3 2 5 6 8 2 4 1 6 4 2 2 5 5 4 3 3 7 13 12 12 10 8
28 17 7 8 6 10 5 4 5 3 4 6 6 7 7 7 4 4 6 5 6 6 5 3 4 6 8 5 2 4 2 4 4 3 3 2 2 4 7 11 10 9 8 9 12
21 12 8 4 6 2 5 4 3 4 3 5 5 5 3 6 7 7 5 5 3 7 4 4 3 3 6 5 5 5 3 5 4 2 3 2 2 4 6 6 8 9 12 13 13
7 4 4 7 8 5 3 5 6 6 2 3 2 2 2 1 3 3 2 2 4 3 7 2 3 6 4 2 4 5 3 4 4 4 4 1 4 4 7 5 8 9 12 13 13
7 2 2 16 4 2 2 4 5 10 4 4 3 3 2 3 3 4 3 2 1 1 2 0 3 2 5 6 1 4 3 4 5 5 2 4 4 5 4 7 11 15 13 10 11
3 3 6 3 2 3 6 4 2 5 3 2 3 4 4 2 4 3 5 3 1 3 2 0 2 3 8 7 6 4 7 4 4 3 3 4 4 1 5 12 10 11 10 9 8
3 4 4 5 1 2 5 4 7 9 4 3 3 5 6 6 3 2 5 5 4 3 4 7 3 5 5 6 4 6 10 6 5 3 5 5 5 4 8 12 9 7 5 8 7
1 3 2 3 5 6 3 4 3 6 6 9 6 6 4 6 6 6 5 3 5 0 2 4 2 2 4 5 4 5 9 8 4 7 5 5 6 3 7 9 6 6 7 7 6
2 3 5 3 4 6 5 4 6 3 3 6 5 6 8 5 2 2 4 3 2 1 2 3 2 2 4 5 6 6 9 5 6 5 11 16 9 4 6 6 5 5 6 6 8
7 6 3 5 5 5 3 6 8 1 3 6 5 4 6 2 2 4 4 4 5 6 4 4 4 3 4 5 5 5 7 12 12 11 6 6 3 4 4 4 3 4 6 6 4
Wind_Direction
350 333 316 300 288 285 310 320 322 325 329 334 333 336 335 330 325 306 249 235 263 297 285 307 300 311 281 263 199 137 70 299 265 255 237 232 190 141 156 109 109 207 143 155 160
19 27 65 120 157 310 314 317 320 324 328 331 333 339 335 328 325 273 232 242 262 283 289 300 306 3 332 251 281 109 120 232 209 232 190 215 187 140 142 142 184 134 124 142 150
47 71 85 76 326 317 316 317 319 321 325 330 335 338 331 324 320 257 279 243 254 263 280 299 315 251 261 54 281 170 221 271 263 265 166 189 293 104 135 159 159 151 144 152 152
32 45 27 334 319 315 315 315 315 317 323 327 334 336 333 5 349 291 260 219 238 261 285 324 24 18 336 333 273 303 277 252 275 181 138 168 181 162 182 182 161 155 157 147 157
337 309 301 303 304 307 310 310 310 312 317 322 334 338 344 0 253 245 231 231 246 253 264 31 336 136 245 243 323 207 266 265 236 147 156 131 147 141 135 159 165 153 119 118 130
313 295 294 296 300 303 304 305 304 306 309 316 330 340 353 293 287 222 206 242 253 248 234 177 224 227 245 253 188 277 282 310 182 105 100 117 173 80 162 163 167 169 130 133 133
307 299 300 302 303 306 310 309 304 302 300 308 321 335 278 238 198 229 207 262 271 263 251 257 209 33 316 319 302 288 315 16 354 193 151 115 15 165 176 171 173 153 144 138 138
321 305 302 303 309 315 314 310 303 297 294 303 312 311 255 295 295 254 238 265 282 275 264 287 308 36 110 295 347 353 46 14 294 218 265 119 230 234 176 144 172 133 149 144 152
360 326 312 312 318 321 323 318 306 298 297 296 301 119 274 320 261 235 245 251 309 339 246 284 358 219 5 46 2 12 282 309 307 205 178 136 218 198 187 167 191 159 159 154 144
13 347 324 323 325 326 329 318 286 300 289 278 253 346 278 266 213 203 212 263 259 341 352 20 49 17 2 71 232 264 348 299 266 281 168 178 193 177 204 183 194 173 166 158 157
13 353 328 324 325 329 336 333 24 14 198 204 206 224 279 302 212 222 210 248 353 38 262 320 84 253 247 220 246 222 235 236 290 342 71 70 68 236 247 254 214 196 167 161 148
7 355 334 324 323 324 319 139 231 319 301 232 244 246 266 269 306 284 220 190 151 248 343 3 238 241 228 280 226 241 3 340 317 342 83 137 134 38 347 295 230 203 140 140 145
9 353 337 326 317 322 313 273 317 312 306 293 209 205 228 191 246 289 141 197 232 309 275 185 262 162 179 14 11 43 72 17 73 327 18 44 10 20 7 22 21 357 175 160 156
5 357 339 332 321 321 282 355 316 152 47 278 189 253 197 160 311 192 199 136 345 317 335 327 324 22 42 61 74 46 312 43 31 60 279 45 254 13 329 7 23 9 78 132 143
0 356 341 327 310 305 331 341 332 63 22 221 219 207 146 144 174 268 188 104 279 284 66 271 294 254 84 203 48 227 309 30 349 49 113 341 90 257 359 353 342 5 45 41 56
354 351 339 316 310 335 341 334 352 46 267 246 157 185 157 228 223 214 193 44 241 297 8 288 291 114 98 32 58 305 19 38 37 56 33 251 113 326 13 273 311 66 69 62 67
347 346 322 292 269 332 340 18 44 120 311 34 195 175 195 218 252 191 163 241 163 38 317 354 349 352 33 17 7 53 51 344 359 6 234 204 46 239 359 8 77 114 108 102 95
342 339 314 272 288 316 340 51 65 271 299 30 351 153 198 205 210 123 140 15 25 59 63 89 336 18 331 289 226 108 133 155 256 247 265 5 128 179 145 120 111 125 129 138 185
342 344 306 268 284 311 66 57 215 294 323 349 353 47 358 359 109 44 78 38 33 23 110 37 299 330 11 352 46 312 339 188 128 6 71 216 330 317 78 68 79 84 80 74 87
340 332 297 350 236 130 73 237 265 318 354 22 41 46 47 4 26 17 48 339 111 37 85 330 341 310 304 359 12 78 250 37 21 27 312 288 236 212 105 126 114 97 89 92 92
9 15 322 21 180 54 149 234 291 289 118 96 146 27 6 74 66 39 26 338 28 38 76 60 110 286 6 28 276 342 35 60 124 146 210 260 265 231 157 154 115 91 88 87 78
5 359 27 339 43 60 157 219 300 281 36 3 81 57 60 66 59 55 139 184 260 352 81 268 140 310 270 280 89 134 142 111 115 269 215 150 271 359 93 98 81 90 88 83 87
353 271 352 322 64 314 301 317 315 325 47 66 72 57 38 50 39 354 158 229 38 79 124 230 28 6 345 351 2 18 339 121 143 90 219 152 230 24 93 72 70 105 102 102 91
21 357 329 30 119 98 5 344 347 337 14 64 65 72 28 353 51 309 353 38 57 93 103 84 104 148 196 234 223 312 326 286 141 156 224 221 172 218 76 96 88 64 71 99 91
67 269 212 334 339 332 59 325 1 352 8 24 47 66 54 33 19 10 19 105 31 306 57 94 179 221 239 263 311 296 312 301 268 229 171 224 132 113 123 124 134 133 117 105 97
43 32 349 287 314 1 357 337 329 325 35 12 59 72 82 95 108 310 333 12 204 85 98 15 255 327 274 273 303 305 297 61 19 48 65 84 69 72 102 100 89 76 102 83 57
343 328 106 300 353 30 344 306 314 79 51 118 89 65 73 96 211 257 253 254 213 174 194 129 120 67 277 338 333 12 340 86 75 52 71 67 46 156 108 99 107 79 75 82 85